Location: Newark
(25.4297°S, 49.2719°W)
Time: 02:16:14
(UTC+00:00)

Vanguard 1 Rocket - Pass Details

Date: 28 November 2019
Orbit: 650 x 4226 km, 34.3° (Epoch: 13 December)

Event Time Altitude Azimuth Distance (km) Brightness Sun altitude
Rises 12:47:44 0° 326° (NW) 4,471 10.8 58.3°
Reaches altitude 10° 12:50:16 10° 332° (NNW) 3,826 10.6 58.9°
Maximum altitude 13:00:31 49° 44° (NE) 2,980 11.4 61.2°
Drops below altitude 10° 13:19:37 10° 111° (ESE) 6,844 12.4 65.5°
Sets 13:26:04 0° 115° (ESE) 8,216 12.5 67.0°
